Lynchburg, VA

10:22 AM EST on January 16, 2017 (GMT -0500)
Lynchburg Regional-Glenn

Weather History for KLYH - March, 2014

Change the Weather History Date:

Thursday, March 20, 2014

  Actual Average Record
Temperature  
Mean Temperature 51 °F 47 °F  
Max Temperature 64 °F 59 °F 83 °F (1968)
Min Temperature 37 °F 35 °F 19 °F (1965)
Degree Days  
Heating Degree Days 14 18  
Month to date heating degree days 456 419  
Since 1 July heating degree days 3970 3843  
Cooling Degree Days 0 0  
Month to date cooling degree days 0 0  
Year to date cooling degree days 0 0  
Growing Degree Days 4 (Base 50)    
Moisture  
Dew Point 28 °F    
Average Humidity 53    
Maximum Humidity 89    
Minimum Humidity 16    
Precipitation  
Precipitation 0.00 in 0.12 in 1.88 in (2003)
Month to date precipitation 1.82 2.25  
Year to date precipitation 8.90 8.32  
Snow  
Snow 0.00 in - - ()
Month to date snowfall 3.4  
Since 1 July snowfall 15.4  
Snow Depth 0.00 in    
Sea Level Pressure  
Sea Level Pressure 29.96 in    
Wind  
Wind Speed 6 mph (WSW)    
Max Wind Speed 17 mph    
Max Gust Speed 26 mph    
Visibility 10 miles    
Events      
T = Trace of Precipitation, MM = Missing Value Source: NWS Daily Summary

Daily Weather History Graph

Daily Weather History Graph

Search for Another Location

Airport or City:

Trip Planner

Search our weather history database for the weather conditions in past years. The results will help you decide how hot, cold, wet, or windy it might be!

Date:

Astronomy

Mar. 20, 2014 Rise Set
Actual Time 7:20 AM EDT 7:28 PM EDT
Civil Twilight 6:54 AM EDT 7:54 PM EDT
Nautical Twilight 6:23 AM EDT 8:25 PM EDT
Astronomical Twilight 5:53 AM EDT 8:56 PM EDT
Moon 11:41 PM EDT (3/20) 9:30 AM EDT (3/20)
Length of Visible Light 13h 00m
Length of Day
12h 08m
Waning Gibbous, 84% of the Moon is Illuminated
Mar 20
Waning Gibbous
Mar 23
Last Quarter
Mar 30
New
Apr 7
First Quarter
Apr 15
Full

Hourly Weather History & Observations

Time (EDT) Temp. Windchill Dew Point Humidity Pressure Visibility Wind Dir Wind Speed Gust Speed Precip Events Conditions
12:54 AM 45.0 °F 43.5 °F 41.0 °F 86% 29.90 in 8.0 mi SW 3.5 mph - N/A   Clear
1:54 AM 45.0 °F 43.5 °F 41.0 °F 86% 29.90 in 6.0 mi SW 3.5 mph - N/A   Clear
2:54 AM 45.0 °F 42.6 °F 41.0 °F 86% 29.90 in 9.0 mi West 4.6 mph - N/A   Clear
3:54 AM 46.0 °F 43.9 °F 41.0 °F 83% 29.90 in 10.0 mi SW 4.6 mph - N/A   Mostly Cloudy
4:54 AM 45.0 °F 41.8 °F 39.0 °F 80% 29.91 in 10.0 mi SSW 5.8 mph - N/A   Clear
5:54 AM 46.9 °F - 37.0 °F 68% 29.93 in 10.0 mi SSW 3.5 mph - N/A   Clear
6:54 AM 51.1 °F - 33.1 °F 50% 29.94 in 10.0 mi Variable 3.5 mph - N/A   Clear
7:54 AM 48.9 °F - 33.1 °F 54% 29.95 in 10.0 mi WSW 3.5 mph - N/A   Clear
8:54 AM 53.1 °F - 33.1 °F 47% 29.95 in 10.0 mi Variable 5.8 mph - N/A   Clear
9:54 AM 55.0 °F - 33.1 °F 43% 29.96 in 10.0 mi WSW 9.2 mph 18.4 mph N/A   Clear
10:54 AM 57.0 °F - 32.0 °F 39% 29.98 in 10.0 mi West 12.7 mph 19.6 mph N/A   Clear
11:54 AM 60.1 °F - 32.0 °F 35% 29.98 in 10.0 mi WNW 11.5 mph 17.3 mph N/A   Clear
12:54 PM 60.1 °F - 28.0 °F 30% 29.98 in 10.0 mi West 11.5 mph 19.6 mph N/A   Clear
1:54 PM 61.0 °F - 21.9 °F 22% 29.96 in 10.0 mi West 10.4 mph 23.0 mph N/A   Clear
2:54 PM 62.1 °F - 19.9 °F 20% 29.94 in 10.0 mi Variable 6.9 mph 21.9 mph N/A   Clear
3:54 PM 64.0 °F - 18.0 °F 17% 29.93 in 10.0 mi WSW 9.2 mph 18.4 mph N/A   Clear
4:54 PM 63.0 °F - 16.0 °F 16% 29.93 in 10.0 mi West 9.2 mph 20.7 mph N/A   Clear
5:54 PM 62.1 °F - 15.1 °F 16% 29.94 in 10.0 mi WNW 11.5 mph 21.9 mph N/A   Clear
6:54 PM 60.1 °F - 15.1 °F 17% 29.95 in 10.0 mi West 5.8 mph 19.6 mph N/A   Clear
7:54 PM 55.0 °F - 17.1 °F 23% 29.98 in 10.0 mi Calm Calm - N/A   Clear
8:54 PM 53.1 °F - 19.0 °F 26% 30.01 in 10.0 mi NW 4.6 mph - N/A   Clear
9:54 PM 53.1 °F - 19.9 °F 27% 30.03 in 10.0 mi Variable 5.8 mph - N/A   Clear
10:54 PM 51.1 °F - 19.9 °F 29% 30.04 in 10.0 mi West 3.5 mph - N/A   Clear
11:54 PM 44.1 °F - 21.9 °F 42% 30.04 in 10.0 mi Calm Calm - N/A   Clear